Content
SEND FEEDBACK

Daily
Averages
Monthly
Summary
United States of America

PINE BLUFFS, WYOMING


Home > North America > United States > Wyoming
Elevation: 5138 feet     Latitude: 41 09N     Longitude: 104 07W

WEATHER
 
SELECT A DAY
Number of Records: 278,927;   Date Range: 3/12/03 - 8/12/14
 
SHARE

PRINT THIS DATA

[ ← Previous Day ]
WEATHER ALMANAC - JANUARY 31, 2013
[ Next Day → ]
[ °C ]   °F
Weather ElementAverageHighLow
Temperature24.8 °F29.5 °F (4:55 pm)22.8 °F (7:35 pm)
Dewpoint19.1 °F21.9 °F (1:15 am)17.1 °F (1:55 pm)
Humidity79.1 %88 % (1:35 am)68 % (4:35 pm)
Barometer30.01 in30.11 in (8:35 pm)29.84 in (12:35 am)
Wind Speed8.4 mph16.1 mph (1:15 am)
Wind Gust19.6 mph (4:15 am)
Weather ElementAverage
Visibility9.8 mi
Wind DirectionW (264.8 °)

Weather ElementTotal
Precipitation---
Heating Degree Days38.9 (Base 65)
Averaged from 66 records on January 31, 2013
WEATHER CONDITIONS BREAKOUT
WIND DIRECTION BREAKOUT
WEATHER BY HOUR - JANUARY 31, 2013
[ °C ]   °F
Local TimeTemperatureDewpointHumidityBarometerVisibilityWind DirectionWind SpeedGust SpeedPrecipitationEventsConditions
12:35 AM27.3 °F20.5 °F75 %29.84 in10.0 miNNW (340°)6.9 mphMostly Cloudy
12:55 AM26.8 °F20.8 °F78 %29.84 in10.0 miNorth (350°)12.7 mphMostly Cloudy
1:15 AM26.2 °F21.9 °F84 %29.86 in10.0 miNorth (10°)16.1 mphMostly Cloudy
1:35 AM23.9 °F20.8 °F88 %29.85 in10.0 miNorth (360°)11.5 mphMostly Cloudy
1:55 AM23.9 °F20.7 °F87 %29.87 in10.0 miNorth (350°)10.4 mphOvercast
2:15 AM23.9 °F20.3 °F86 %29.87 in10.0 miNNW (340°)11.5 mphOvercast
2:35 AM23.5 °F20.3 °F87 %29.87 in10.0 miNNW (340°)6.9 mphMostly Cloudy
2:55 AM24.3 °F20.8 °F87 %29.87 in10.0 miNW (320°)6.9 mphOvercast
3:15 AM24.3 °F20.8 °F87 %29.87 in10.0 miNNW (330°)10.4 mphOvercast
3:35 AM24.6 °F21.0 °F86 %29.88 in10.0 miNNW (330°)12.7 mphOvercast
3:55 AM24.4 °F20.3 °F84 %29.88 in10.0 miNW (320°)11.5 mphOvercast
4:15 AM24.8 °F19.8 °F81 %29.88 in10.0 miNNW (330°)12.7 mph19.6 mphOvercast
4:35 AM24.6 °F19.2 °F80 %29.88 in10.0 miNNW (330°)12.7 mphOvercast
4:55 AM24.8 °F19.4 °F80 %29.90 in10.0 miNNW (330°)15.0 mph19.6 mphOvercast
5:15 AM24.8 °F18.9 °F78 %29.90 in10.0 miNW (320°)9.2 mphOvercast
5:35 AM24.4 °F19.0 °F80 %29.91 in10.0 miNW (310°)10.4 mphOvercast
5:55 AM23.9 °F18.7 °F80 %29.91 in10.0 miNW (320°)8.1 mphOvercast
6:15 AM23.7 °F18.9 °F82 %29.92 in10.0 miNW (310°)9.2 mphOvercast
6:55 AM23.7 °F18.9 °F82 %29.93 in10.0 miNW (310°)6.9 mphOvercast
7:15 AM23.4 °F18.7 °F82 %29.94 in10.0 miWNW (300°)8.1 mphOvercast
7:35 AM23.4 °F18.5 °F82 %29.94 in10.0 miNW (310°)6.9 mphOvercast
7:55 AM23.5 °F18.1 °F80 %29.97 in10.0 miNNW (340°)9.2 mphOvercast
8:15 AM23.0 °F17.6 °F80 %29.99 in10.0 miNNW (330°)5.8 mphOvercast
8:35 AM23.0 °F18.3 °F82 %29.99 in7.0 miNW (320°)3.5 mphSnowLight Snow
8:55 AM23.4 °F19.2 °F84 %30.01 in7.0 miNNW (340°)13.8 mph17.3 mphSnowLight Snow
9:15 AM23.7 °F19.0 °F82 %30.02 in7.0 miNNW (330°)11.5 mph17.3 mphOvercast
9:35 AM23.9 °F19.6 °F84 %30.04 in10.0 miNNW (330°)10.4 mphOvercast
9:55 AM24.6 °F19.0 °F79 %30.05 in10.0 miNW (320°)8.1 mphOvercast
10:15 AM24.8 °F18.5 °F77 %30.07 in10.0 miNNW (340°)15.0 mphOvercast
10:35 AM24.8 °F17.8 °F75 %30.07 in10.0 miNNW (340°)13.8 mphOvercast
10:55 AM24.6 °F17.8 °F75 %30.08 in10.0 miNorth (350°)12.7 mphOvercast
11:15 AM24.6 °F18.0 °F76 %30.09 in10.0 miNorth (350°)12.7 mph18.4 mphOvercast
11:35 AM24.8 °F18.1 °F76 %30.10 in10.0 miNorth (360°)11.5 mph17.3 mphOvercast
11:55 AM24.1 °F17.6 °F76 %30.10 in10.0 miNNE (20°)5.8 mphOvercast
12:15 PM25.7 °F18.0 °F73 %30.09 in10.0 miNNW (330°)13.8 mph18.4 mphMostly Cloudy
12:35 PM25.3 °F18.0 °F74 %30.10 in10.0 miNorth (350°)16.1 mphMostly Cloudy
12:55 PM24.8 °F18.1 °F76 %30.09 in10.0 miNorth (350°)11.5 mph17.3 mphOvercast
1:15 PM24.3 °F17.4 °F75 %30.08 in7.0 miNNW (340°)10.4 mphSnowLight Snow
1:35 PM24.6 °F17.8 °F75 %30.08 in7.0 miNNW (330°)6.9 mphMostly Cloudy
1:55 PM24.1 °F17.1 °F75 %30.08 in10.0 miNNW (340°)9.2 mphMostly Cloudy
2:15 PM24.3 °F17.2 °F75 %30.09 in10.0 miNNW (340°)6.9 mphOvercast
2:35 PM24.8 °F17.6 °F74 %30.08 in10.0 miNW (310°)5.8 mphOvercast
2:55 PM26.1 °F18.3 °F73 %30.08 in10.0 miWNW (300°)8.1 mphOvercast
3:15 PM26.6 °F18.5 °F71 %30.08 in10.0 miNW (320°)6.9 mphOvercast
3:35 PM27.1 °F18.7 °F70 %30.07 in10.0 miNW (320°)8.1 mphOvercast
3:55 PM27.3 °F18.7 °F70 %30.07 in10.0 miNNW (330°)8.1 mphOvercast
4:15 PM27.5 °F19.0 °F71 %30.07 in10.0 miCalmOvercast
4:35 PM28.6 °F19.2 °F68 %30.07 in10.0 miNNW (340°)3.5 mphOvercast
4:55 PM29.5 °F19.9 °F68 %30.07 in10.0 miWNW (300°)5.8 mphOvercast
5:15 PM28.4 °F19.4 °F69 %30.07 in10.0 miNW (310°)3.5 mphOvercast
5:35 PM28.2 °F19.2 °F69 %30.07 in10.0 miCalmOvercast
5:55 PM27.0 °F19.6 °F74 %30.07 in10.0 miCalmOvercast
6:15 PM25.3 °F19.0 °F77 %30.07 in10.0 miNorth (10°)4.6 mphOvercast
6:35 PM23.5 °F18.7 °F82 %30.06 in10.0 miNorth (10°)5.8 mphOvercast
7:15 PM23.9 °F18.9 °F81 %30.08 in10.0 miCalmOvercast
7:35 PM22.8 °F18.7 °F84 %30.09 in10.0 miSouth (180°)4.6 mphOvercast
7:55 PM23.0 °F18.5 °F83 %30.10 in10.0 miCalmOvercast
8:15 PM23.7 °F19.4 °F84 %30.10 in10.0 miSouth (170°)3.5 mphOvercast
8:35 PM24.8 °F19.9 °F82 %30.11 in10.0 miSouth (170°)6.9 mphOvercast
8:55 PM25.0 °F20.3 °F82 %30.11 in10.0 miSouth (180°)9.2 mphOvercast
9:15 PM24.3 °F19.9 °F84 %30.11 in10.0 miSouth (190°)9.2 mphOvercast
9:35 PM24.3 °F20.3 °F85 %30.11 in10.0 miSSW (200°)6.9 mphOvercast
10:15 PM23.7 °F20.1 °F86 %30.11 in10.0 miSSW (210°)8.1 mphOvercast
10:56 PM24.8 °F21.2 °F86 %30.10 in10.0 miSSW (200°)5.8 mphOvercast
11:36 PM24.8 °F19.4 °F80 %30.09 in10.0 miSSW (210°)6.9 mphMostly Cloudy
11:58 PM23.0 °F17.6 °F80 %30.09 in10.0 miSSW (210°)5.8 mphScattered Clouds
Hourly data recorded from KIBM, located miles away from Pine Bluffs, Wyoming







STORIES FROM OUR PARTNERS